Overview Statistics Trail Chart Weather Telemetry Raw packets
 

This is the latest recevied weather packets stored in our database for station/object KY0TEQ-13. If no packets are shown the sender has not sent any weather packets the latest 10 day(s).

<< 109 110 111 112 113 114 >>
Time Temp. Humidity Pressure Rain* Wind** Luminosity Snow
1787859338 29.44° C 20% 1312.1 hPa 0 mm - 626 W/m² -
1787859034 30° C 19% 1311.8 hPa 0 mm - 859 W/m² -
1787858730 29.44° C 19% 1311.8 hPa 0 mm - 841 W/m² -
1787858426 30.56° C 20% 1311.9 hPa 0 mm - 808 W/m² -
1787858125 30.56° C 20% 1311.9 hPa 0 mm - 776 W/m² -
1787857821 28.89° C 22% 1312.1 hPa 0 mm - 762 W/m² -
1787857516 29.44° C 21% 1312.5 hPa 0 mm - 761 W/m² -
1787857215 28.89° C 22% 1312.4 hPa 0 mm - 764 W/m² -
1787856909 28.89° C 23% 1312.4 hPa 0 mm - 760 W/m² -
1787856604 28.89° C 23% 1312.8 hPa 0 mm - 760 W/m² -
1787856299 28.89° C 23% 1312.7 hPa 0 mm - 757 W/m² -
1787855995 28.89° C 22% 1312.9 hPa 0 mm - 740 W/m² -
1787855694 28.33° C 23% 1313 hPa 0 mm - 487 W/m² -
1787855388 27.78° C 23% 1313 hPa 0 mm - 702 W/m² -
1787855084 27.78° C 24% 1313.2 hPa 0 mm - 715 W/m² -
1787854779 27.78° C 24% 1313.3 hPa 0 mm - 710 W/m² -
1787854478 28.33° C 23% 1313.4 hPa 0 mm - 704 W/m² -
1787854173 27.22° C 24% 1313.4 hPa 0 mm - 701 W/m² -
1787853868 26.67° C 27% 1313.8 hPa 0 mm - 693 W/m² -
1787853567 27.22° C 26% 1313.8 hPa 0 mm - 689 W/m² -
1787853262 27.78° C 24% 1314 hPa 0 mm - 682 W/m² -
1787852955 27.22° C 27% 1314.1 hPa 0 mm - 679 W/m² -
1787852651 27.78° C 26% 1314 hPa 0 mm - 672 W/m² -
1787852350 26.67° C 25% 1314.1 hPa 0 mm - 664 W/m² -
1787852049 27.22° C 26% 1314.1 hPa 0 mm - 660 W/m² -

* Rain latest hour (hover to see other rain measurements)
** Current wind speed in m/s (hover to see current wind gust speed)